| time (UTC) | temp C | wind direction | speed KPH | gust KPH | rain 1hr cm | rain 24hr cm | rain mn cm | humidity % | barometer mb |
| 20260504044551 | 6 | 161 | 0.0 | 6.4 | 0.00 | 0.00 | 0.00 | 66 | 1010.5 |
| 20260504043053 | 6 | 0 | 3.2 | 9.7 | 0.00 | 0.00 | 0.00 | 64 | 1010.7 |
| 20260504041553 | 5 | 0 | 0.0 | 3.2 | 0.00 | 0.00 | 0.00 | 68 | 1010.9 |
| 20260504040106 | 5 | 178 | 0.0 | 4.8 | 0.00 | 0.00 | 0.00 | 67 | 1010.9 |
| 20260504034612 | 5 | 146 | 0.0 | 3.2 | 0.00 | 0.00 | 0.00 | 68 | 1010.7 |
| 20260504033054 | 4 | 0 | 0.0 | 3.2 | 0.00 | 0.00 | 0.00 | 69 | 1010.8 |
| 20260504031552 | 4 | 0 | 0.0 | 4.8 | 0.00 | 0.00 | 0.00 | 69 | 1010.8 |
| 20260504030118 | 3 | 0 | 0.0 | 0.0 | 0.00 | 0.00 | 0.00 | 72 | 1010.8 |
| 20260504024555 | 3 | 0 | 0.0 | 3.2 | 0.00 | 0.00 | 0.00 | 72 | 1010.9 |
| 20260504023046 | 3 | 0 | 0.0 | 3.2 | 0.00 | 0.00 | 0.00 | 71 | 1010.8 |
| 20260504021551 | 3 | 192 | 1.6 | 4.8 | 0.00 | 0.00 | 0.00 | 70 | 1010.7 |
| 20260504020051 | 3 | 0 | 0.0 | 4.8 | 0.00 | 0.00 | 0.00 | 70 | 1010.7 |
| 20260504014600 | 5 | 192 | 1.6 | 4.8 | 0.00 | 0.00 | 0.00 | 68 | 1010.8 |
| 20260504013053 | 5 | 192 | 0.0 | 3.2 | 0.00 | 0.00 | 0.00 | 67 | 1010.9 |
| 20260504011550 | 5 | 0 | 0.0 | 3.2 | 0.00 | 0.00 | 0.00 | 67 | 1010.7 |
| 20260504010053 | 5 | 192 | 0.0 | 4.8 | 0.00 | 0.00 | 0.00 | 65 | 1010.5 |
| 20260504004552 | 6 | 0 | 0.0 | 3.2 | 0.00 | 0.00 | 0.00 | 61 | 1010.3 |
| 20260504003048 | 6 | 192 | 0.0 | 6.4 | 0.00 | 0.00 | 0.00 | 60 | 1010.2 |
| 20260504001600 | 6 | 0 | 3.2 | 8.0 | 0.00 | 0.00 | 0.00 | 58 | 1010.2 |
| 20260504000057 | 7 | 0 | 0.0 | 6.4 | 0.00 | 0.00 | 0.00 | 57 | 1010.0 |
| 20260503234548 | 7 | 229 | 3.2 | 14.5 | 0.00 | 0.00 | 0.00 | 55 | 1010.0 |
| 20260503233051 | 7 | 276 | 4.8 | 24.1 | 0.00 | 0.00 | 0.00 | 54 | 1010.0 |
| 20260503231552 | 8 | 224 | 3.2 | 22.5 | 0.00 | 0.00 | 0.00 | 52 | 1010.0 |
| 20260503230055 | 8 | 142 | 4.8 | 11.3 | 0.00 | 0.00 | 0.00 | 50 | 1009.7 |
| 20260503224552 | 8 | 183 | 1.6 | 6.4 | 0.00 | 0.00 | 0.00 | 48 | 1009.6 |
| 20260503223051 | 8 | 244 | 3.2 | 11.3 | 0.00 | 0.00 | 0.00 | 45 | 1009.6 |
| 20260503221549 | 8 | 217 | 3.2 | 12.9 | 0.00 | 0.00 | 0.00 | 44 | 1009.5 |
| 20260503220054 | 8 | 173 | 1.6 | 16.1 | 0.00 | 0.00 | 0.00 | 43 | 1009.4 |
| 20260503214600 | 8 | 227 | 3.2 | 27.4 | 0.00 | 0.00 | 0.00 | 40 | 1009.3 |
| 20260503213048 | 8 | 272 | 8.0 | 20.9 | 0.00 | 0.00 | 0.00 | 38 | 1009.3 |
| 20260503211549 | 8 | 287 | 6.4 | 17.7 | 0.00 | 0.00 | 0.00 | 37 | 1009.1 |
| 20260503210050 | 9 | 350 | 6.4 | 20.9 | 0.00 | 0.00 | 0.00 | 34 | 1009.2 |
| 20260503204557 | 10 | 236 | 6.4 | 25.7 | 0.00 | 0.00 | 0.00 | 31 | 1009.1 |
| 20260503203055 | 9 | 242 | 9.7 | 38.6 | 0.00 | 0.00 | 0.00 | 33 | 1009.3 |
| 20260503201549 | 8 | 212 | 8.0 | 22.5 | 0.00 | 0.00 | 0.00 | 33 | 1009.3 |
| 20260503200049 | 9 | 282 | 6.4 | 25.7 | 0.00 | 0.00 | 0.00 | 34 | 1009.3 |
| 20260503194550 | 8 | 58 | 8.0 | 25.7 | 0.00 | 0.00 | 0.00 | 35 | 1009.7 |
| 20260503193108 | 8 | 238 | 4.8 | 27.4 | 0.00 | 0.00 | 0.00 | 36 | 1009.8 |
| 20260503191558 | 8 | 295 | 4.8 | 20.9 | 0.00 | 0.00 | 0.00 | 37 | 1009.9 |
| 20260503190100 | 8 | 220 | 6.4 | 25.7 | 0.00 | 0.00 | 0.00 | 42 | 1010.0 |
| 20260503184551 | 7 | 352 | 4.8 | 19.3 | 0.00 | 0.00 | 0.00 | 39 | 1010.1 |
| 20260503183101 | 6 | 280 | 9.7 | 19.3 | 0.00 | 0.00 | 0.00 | 41 | 1010.3 |
| 20260503181548 | 7 | 297 | 9.7 | 25.7 | 0.00 | 0.00 | 0.00 | 38 | 1010.4 |
| 20260503180058 | 7 | 152 | 8.0 | 19.3 | 0.00 | 0.00 | 0.00 | 41 | 1010.3 |
| 20260503174551 | 6 | 336 | 9.7 | 29.0 | 0.00 | 0.00 | 0.00 | 44 | 1010.4 |
| 20260503173111 | 7 | 322 | 4.8 | 22.5 | 0.00 | 0.00 | 0.00 | 45 | 1010.7 |
| 20260503171554 | 6 | 196 | 3.2 | 25.7 | 0.00 | 0.00 | 0.00 | 47 | 1011.0 |
| 20260503100104 | 0 | 236 | 4.8 | 14.5 | 0.00 | 0.00 | 0.00 | 83 | 1010.6 |
| 20260503081550 | 0 | 249 | 3.2 | 14.5 | 0.00 | 0.00 | 0.00 | 80 | 1010.9 |
| 20260503071602 | 0 | 278 | 4.8 | 14.5 | 0.00 | 0.00 | 0.00 | 79 | 1010.9 |